Estación de Monte Patria - Chilecito

Ultimos registro cada 15 minutos 23
Estación Fecha / Hora Temperatura Humedad Lluvia Velocidad Dirección Radiación Presion
23 Monte Patria - Chilecito 04-05-2026 05:30 12,5 45,6 0 0 327 0,6 936,9
22 Monte Patria - Chilecito 04-05-2026 05:15 13,4 42,1 0 0 327 0,6 937
21 Monte Patria - Chilecito 04-05-2026 05:00 13,5 42,7 0 0 327 0,6 936,9
20 Monte Patria - Chilecito 04-05-2026 04:45 13 45,8 0 0 327 0,6 937
19 Monte Patria - Chilecito 04-05-2026 04:30 13,4 45 0 0 327 0,6 937
18 Monte Patria - Chilecito 04-05-2026 04:15 13,7 44,3 0 0 327 0,6 937,1
17 Monte Patria - Chilecito 04-05-2026 04:00 13,8 43,8 0 0 327 0,6 937
16 Monte Patria - Chilecito 04-05-2026 03:45 14,4 43,9 0 0 327 0,6 937,1
15 Monte Patria - Chilecito 04-05-2026 03:30 13,6 46,1 0 0 327 0,6 937,1
14 Monte Patria - Chilecito 04-05-2026 03:15 13,1 50,1 0 0 327 0,6 937,1
13 Monte Patria - Chilecito 04-05-2026 03:00 13,6 47,8 0 0 327 0,6 937,2
12 Monte Patria - Chilecito 04-05-2026 02:45 13,2 50,9 0 0 327 0,6 937,1
11 Monte Patria - Chilecito 04-05-2026 02:30 13,3 50,3 0 0 327 0,6 937,3
10 Monte Patria - Chilecito 04-05-2026 02:15 13,9 48,1 0 0 327 0,6 937,3
9 Monte Patria - Chilecito 04-05-2026 02:00 13,8 49,2 0 0 327 0,6 937,5
8 Monte Patria - Chilecito 04-05-2026 01:45 13,9 48,3 0 0 327 0,6 937,6
7 Monte Patria - Chilecito 04-05-2026 01:30 13,9 48,6 0 0 327 0,6 937,7
6 Monte Patria - Chilecito 04-05-2026 01:15 14,1 48,1 0 0 327 0,6 937,8
5 Monte Patria - Chilecito 04-05-2026 01:00 13,6 50,9 0 0 327 0,6 937,9
4 Monte Patria - Chilecito 04-05-2026 00:45 13,8 51,3 0 0 327 0,6 937,9
3 Monte Patria - Chilecito 04-05-2026 00:30 13,8 51,1 0 0 327 0,6 938
2 Monte Patria - Chilecito 04-05-2026 00:15 13,5 53,7 0 0 327 0,6 938,1
1 Monte Patria - Chilecito 04-05-2026 00:00 14,4 50,5 0 0 327 0,6 937,9